GW5048 Weather Reports


time (UTC)temp
C
wind
direction
speed
KPH
gust
KPH
rain 1hr
cm
rain 24hr
cm
rain mn
cm
humidity
%
barometer
mb
20260505102033 7 57 0.0 0.0 0.00 0.00 0.00 94 954.8
20260505101531 7 57 0.0 0.0 0.00 0.00 0.00 93 954.6
20260505101028 7 57 0.0 0.0 0.00 0.00 0.00 93 954.6
20260505100525 7 57 0.0 0.0 0.00 0.00 0.00 93 954.6
20260505100021 7 57 0.0 0.0 0.00 0.00 0.00 93 954.5
20260505095517 7 57 0.0 0.0 0.00 0.00 0.00 91 954.7
20260505095014 7 57 0.0 0.0 0.00 0.00 0.00 91 954.6
20260505094511 7 104 0.0 0.0 0.00 0.00 0.00 91 954.4
20260505094007 7 115 0.0 0.0 0.00 0.00 0.00 90 954.5
20260505093504 7 2 0.0 0.0 0.00 0.00 0.00 91 954.4
20260505093001 7 12 0.0 0.0 0.00 0.00 0.00 91 954.4
20260505092458 8 12 0.0 0.0 0.00 0.00 0.00 91 954.4
20260505091956 8 2 0.0 0.0 0.00 0.00 0.00 91 954.4
20260505091453 8 356 0.0 0.0 0.00 0.00 0.00 90 954.4
20260505090951 8 19 0.0 0.0 0.00 0.00 0.00 89 954.5
20260505090449 8 117 0.0 0.0 0.00 0.00 0.00 89 954.5
20260505085946 8 186 0.0 0.0 0.00 0.00 0.00 89 954.4
20260505085444 8 132 0.0 0.0 0.00 0.00 0.00 88 954.4
20260505084942 7 152 0.0 0.0 0.00 0.00 0.00 90 954.6
20260505084440 8 165 0.0 0.0 0.00 0.00 0.00 89 954.5
20260505083937 8 238 0.0 0.0 0.00 0.00 0.00 89 954.4
20260505083435 8 101 0.0 0.0 0.00 0.00 0.00 90 954.3
20260505082931 8 119 0.0 0.0 0.00 0.00 0.00 90 954.3
20260505082427 7 286 0.0 0.0 0.00 0.00 0.00 90 954.5
20260505081924 7 306 0.0 0.0 0.00 0.00 0.00 90 954.3
20260505081421 8 281 0.0 0.0 0.00 0.00 0.00 90 954.1
20260505080917 7 121 0.0 0.0 0.00 0.00 0.00 90 954.3
20260505080414 8 220 0.0 0.0 0.00 0.00 0.00 89 954.4
20260505075909 8 73 0.0 0.0 0.00 0.00 0.00 89 954.1
20260505075406 8 95 0.0 0.0 0.00 0.00 0.00 88 954.2
20260505074904 8 357 0.0 0.0 0.00 0.00 0.00 89 954.0
20260505074400 8 253 0.0 1.6 0.00 0.00 0.00 89 954.0
20260505073857 8 356 0.0 0.0 0.00 0.00 0.00 89 954.1
20260505073355 8 354 0.0 0.0 0.00 0.00 0.00 89 953.9
20260505072852 8 166 0.0 0.0 0.00 0.00 0.00 89 954.2
20260505072348 8 299 0.0 0.0 0.00 0.00 0.00 88 954.0
20260505071844 8 329 0.0 0.0 0.00 0.00 0.00 89 953.7
20260505071341 8 238 0.0 0.0 0.00 0.00 0.00 89 953.8
20260505070839 8 94 0.0 0.0 0.00 0.00 0.00 89 953.8
20260505070335 8 175 0.0 0.0 0.00 0.00 0.00 88 953.8
20260505065831 8 245 0.0 0.0 0.00 0.00 0.00 89 954.0
20260505065328 8 237 0.0 0.0 0.00 0.00 0.00 88 953.8
20260505064825 8 350 0.0 0.0 0.00 0.00 0.00 88 953.8
20260505064322 8 350 0.0 0.0 0.00 0.00 0.00 88 953.9
20260505063820 8 350 0.0 0.0 0.00 0.00 0.00 87 953.8
20260505063316 9 23 0.0 0.0 0.00 0.00 0.00 85 953.9
20260505062812 9 77 0.0 0.0 0.00 0.00 0.00 86 953.7
20260505062310 9 77 0.0 0.0 0.00 0.00 0.00 85 953.8
20260505061806 9 94 0.0 0.0 0.00 0.00 0.00 84 953.8
20260505061305 10 104 0.0 0.0 0.00 0.00 0.00 82 954.0
20260505060802 10 105 0.0 0.0 0.00 0.00 0.00 81 953.7
20260505060259 10 105 0.0 0.0 0.00 0.00 0.00 81 953.7
20260505055754 10 104 0.0 0.0 0.00 0.00 0.00 81 953.8
20260505055250 10 121 0.0 0.0 0.00 0.00 0.00 81 953.6
20260505054748 10 121 0.0 0.0 0.00 0.00 0.00 82 953.7
20260505054245 10 120 0.0 0.0 0.00 0.00 0.00 80 953.6
20260505053743 10 347 0.0 0.0 0.00 0.00 0.00 81 953.7
20260505053240 10 347 0.0 0.0 0.00 0.00 0.00 81 953.6
20260505052737 10 347 0.0 0.0 0.00 0.00 0.00 82 953.4
20260505052234 10 347 0.0 0.0 0.00 0.00 0.00 81 953.6
20260505051731 10 347 0.0 0.0 0.00 0.00 0.00 82 953.6
20260505051229 10 347 0.0 0.0 0.00 0.00 0.00 81 953.5
20260505050726 10 347 0.0 0.0 0.00 0.00 0.00 81 953.6
20260505050225 10 347 0.0 0.0 0.00 0.00 0.00 81 953.3
20260505041653 11 339 0.0 0.0 0.00 0.00 0.00 78 953.0
20260505041151 11 340 0.0 0.0 0.00 0.00 0.00 73 953.3
20260505040648 11 289 0.0 0.0 0.00 0.00 0.00 74 953.1
20260505040145 11 289 0.0 0.0 0.00 0.00 0.00 76 953.1
20260505035641 11 287 0.0 0.0 0.00 0.00 0.00 72 953.2
20260505035138 11 355 0.0 0.0 0.00 0.00 0.00 73 953.3
20260505034635 11 355 0.0 0.0 0.00 0.00 0.00 75 953.1
20260505034132 11 14 0.0 0.0 0.00 0.00 0.00 74 953.4
20260505033628 11 114 0.0 0.0 0.00 0.00 0.00 72 953.3
20260505033127 11 125 0.0 0.0 0.00 0.00 0.00 75 953.1
20260505032624 11 135 0.0 0.0 0.00 0.00 0.00 75 953.2
20260505032120 11 129 0.0 0.0 0.00 0.00 0.00 73 953.4
20260505031618 11 129 0.0 0.0 0.00 0.00 0.00 73 953.2
20260505031114 -17 0.0 0.0 0.00 0.00 0.00 953.3
20260505030611 12 120 0.0 0.0 0.00 0.00 0.00 70 953.2
20260505030108 12 120 0.0 0.0 0.00 0.00 0.00 70 953.3
20260505025603 12 131 0.0 0.0 0.00 0.00 0.00 69 953.2
20260505025102 12 86 0.0 0.0 0.00 0.00 0.00 69 953.3
20260505024558 12 349 0.0 0.0 0.00 0.00 0.00 65 953.4
20260505024056 12 348 0.0 0.0 0.00 0.00 0.00 66 953.3
20260505023554 13 348 0.0 0.0 0.00 0.00 0.00 67 953.3
20260505023051 13 349 0.0 0.0 0.00 0.00 0.00 65 953.2
20260505022548 13 349 0.0 1.6 0.00 0.00 0.00 64 953.2
20260505022045 13 106 0.0 0.0 0.00 0.00 0.00 63 953.3
20260505021542 13 112 0.0 0.0 0.00 0.00 0.00 65 953.2
20260505021038 14 110 0.0 0.0 0.00 0.00 0.00 62 953.3
20260505020532 14 111 0.0 0.0 0.00 0.00 0.00 59 953.2
20260505020029 13 138 0.0 0.0 0.00 0.00 0.00 58 953.2
20260505015527 13 151 0.0 0.0 0.00 0.00 0.00 62 953.2
20260505015023 13 110 0.0 0.0 0.00 0.00 0.00 62 953.0
20260505014520 14 110 0.0 0.0 0.00 0.00 0.00 61 953.2
20260505014018 14 116 0.0 0.0 0.00 0.00 0.00 61 952.9
20260505013515 14 112 0.0 0.0 0.00 0.00 0.00 60 953.3
20260505013012 15 120 0.0 0.0 0.00 0.00 0.00 62 953.1
20260505012510 16 114 0.0 0.0 0.00 0.00 0.00 57 953.4
20260505012006 16 191 0.0 4.8 0.00 0.00 0.00 53 953.2
20260505011502 16 121 0.0 0.0 0.00 0.00 0.00 52 953.3
20260505010959 16 241 0.0 3.2 0.00 0.00 0.00 51 953.2
20260505010455 15 185 6.4 9.7 0.00 0.00 0.00 50 953.1
20260505005951 15 260 0.0 1.6 0.00 0.00 0.00 54 952.9
20260505005448 15 239 1.6 3.2 0.00 0.00 0.00 53 952.9
20260505004946 15 352 0.0 0.0 0.00 0.00 0.00 56 953.0
20260505004442 15 85 0.0 0.0 0.00 0.00 0.00 57 953.0
20260505003939 15 85 0.0 0.0 0.00 0.00 0.00 57 953.0
20260505003436 16 314 0.0 0.0 0.00 0.00 0.00 59 952.9
20260505002932 16 304 0.0 0.0 0.00 0.00 0.00 55 952.8
20260505002429 16 304 0.0 1.6 0.00 0.00 0.00 52 952.9
20260505001927 17 241 0.0 1.6 0.00 0.00 0.00 50 952.7
20260505001425 17 162 0.0 0.0 0.00 0.00 0.00 48 952.7
20260505000921 17 159 0.0 0.0 0.00 0.00 0.00 49 952.8
20260505000420 17 186 0.0 1.6 0.00 0.00 0.00 49 952.8
20260504235916 18 277 0.0 1.6 0.00 0.00 0.00 48 952.7
20260504235413 18 219 0.0 3.2 0.00 0.00 0.00 45 952.5
20260504234910 18 234 0.0 0.0 0.00 0.00 0.00 43 952.6
20260504234407 18 294 0.0 0.0 0.00 0.00 0.00 45 952.5
20260504233903 19 294 0.0 0.0 0.00 0.00 0.00 43 952.5
20260504233359 20 230 1.6 3.2 0.00 0.00 0.00 39 952.6
20260504232856 19 267 0.0 1.6 0.00 0.00 0.00 42 952.5
20260504232353 20 272 1.6 6.4 0.00 0.00 0.00 42 952.7
20260504231850 20 270 3.2 6.4 0.00 0.00 0.00 39 952.4
20260504231346 20 240 1.6 6.4 0.00 0.00 0.00 39 952.5
20260504230842 19 212 3.2 3.2 0.00 0.00 0.00 43 952.5
20260504230340 19 270 0.0 0.0 0.00 0.00 0.00 42 952.6
20260504225839 19 259 0.0 0.0 0.00 0.00 0.00 44 952.5
20260504225335 20 330 1.6 4.8 0.00 0.00 0.00 42 952.5
20260504224833 20 0 1.6 1.6 0.00 0.00 0.00 40 952.6
20260504224330 20 232 3.2 11.3 0.00 0.00 0.00 39 952.5
20260504223826 20 184 8.0 12.9 0.00 0.00 0.00 38 952.6
20260504223321 21 270 0.0 6.4 0.00 0.00 0.00 38 952.5
20260504222818 22 62 8.0 14.5 0.00 0.00 0.00 38 952.6
20260504222315 21 235 3.2 6.4 0.00 0.00 0.00 38 952.7
20260504221814 21 258 6.4 9.7 0.00 0.00 0.00 37 952.5
20260504221310 22 260 1.6 3.2 0.00 0.00 0.00 38 952.7
20260504220807 22 226 3.2 4.8 0.00 0.00 0.00 37 952.5
20260504220304 22 230 4.8 9.7 0.00 0.00 0.00 39 952.7
20260504215802 22 218 3.2 6.4 0.00 0.00 0.00 37 952.8
20260504215258 22 221 1.6 9.7 0.00 0.00 0.00 41 952.6
20260504214754 22 279 3.2 4.8 0.00 0.00 0.00 40 952.8
20260504214251 22 231 3.2 6.4 0.00 0.00 0.00 43 952.8
20260504213747 22 226 1.6 6.4 0.00 0.00 0.00 44 952.7
20260504213243 22 85 3.2 4.8 0.00 0.00 0.00 40 952.7
20260504212741 21 222 3.2 3.2 0.00 0.00 0.00 46 952.9
20260504212237 21 250 0.0 0.0 0.00 0.00 0.00 47 952.7
20260504211735 21 351 1.6 3.2 0.00 0.00 0.00 45 952.7
20260504211231 21 256 0.0 0.0 0.00 0.00 0.00 47 952.7
20260504210728 21 285 0.0 0.0 0.00 0.00 0.00 46 952.8
20260504210226 21 209 1.6 1.6 0.00 0.00 0.00 50 953.0
20260504205722 21 145 3.2 4.8 0.00 0.00 0.00 46 952.9
20260504205220 20 312 1.6 4.8 0.00 0.00 0.00 52 952.9
20260504204718 20 252 1.6 4.8 0.00 0.00 0.00 47 953.1
20260504204216 19 254 1.6 3.2 0.00 0.00 0.00 53 953.2
20260504203715 19 243 1.6 3.2 0.00 0.00 0.00 55 953.0
20260504203212 20 10 1.6 11.3 0.00 0.00 0.00 52 953.2
20260504202712 20 314 0.0 3.2 0.00 0.00 0.00 55 953.5
20260504202209 19 273 0.0 4.8 0.00 0.00 0.00 58 953.7
20260504201706 18 263 0.0 6.4 0.00 0.00 0.00 58 953.3
20260504201204 17 274 3.2 11.3 0.00 0.00 0.00 57 953.5
20260504200701 16 124 1.6 4.8 0.00 0.00 0.00 61 953.5
20260504200157 16 305 4.8 6.4 0.00 0.00 0.00 66 953.7
20260504195653 14 7 1.6 4.8 0.00 0.00 0.00 73 953.4
20260504195149 14 90 6.4 6.4 0.00 0.00 0.00 80 953.4
20260504194646 15 9 4.8 6.4 0.00 0.00 0.00 81 953.8
20260504194142 17 279 0.0 1.6 0.00 0.00 0.00 66 953.8
20260504193639 18 200 3.2 6.4 0.00 0.00 0.00 51 953.6
20260504193137 18 187 1.6 4.8 0.00 0.00 0.00 47 953.3
20260504192635 19 229 0.0 4.8 0.00 0.00 0.00 46 953.2
20260504192133 20 230 3.2 9.7 0.00 0.00 0.00 45 953.3
20260504191631 19 225 1.6 3.2 0.00 0.00 0.00 48 953.5
20260504191127 20 189 3.2 6.4 0.00 0.00 0.00 47 953.7
20260504190623 20 205 3.2 9.7 0.00 0.00 0.00 47 953.8
20260504190120 20 249 4.8 9.7 0.00 0.00 0.00 47 953.9
20260504185616 20 143 0.0 0.0 0.00 0.00 0.00 52 954.1
20260504185113 20 249 3.2 12.9 0.00 0.00 0.00 50 953.9
20260504184609 19 165 6.4 11.3 0.00 0.00 0.00 49 954.1
20260504184104 19 216 0.0 12.9 0.00 0.00 0.00 47 953.8
20260504183601 19 120 3.2 6.4 0.00 0.00 0.00 49 953.6
20260504183059 19 225 6.4 9.7 0.00 0.00 0.00 47 953.9
20260504182556 18 188 6.4 9.7 0.00 0.00 0.00 48 954.1
20260504182053 18 305 6.4 12.9 0.00 0.00 0.00 50 953.9
20260504181550 18 221 6.4 16.1 0.00 0.00 0.00 52 954.2
20260504181048 18 230 3.2 12.9 0.00 0.00 0.00 50 953.8
20260504180547 18 176 6.4 9.7 0.00 0.00 0.00 53 954.0
20260504180046 17 289 1.6 3.2 0.00 0.00 0.00 56 954.1
20260504175542 17 265 3.2 6.4 0.00 0.00 0.00 55 954.1
20260504175039 17 253 1.6 6.4 0.00 0.00 0.00 54 954.2
20260504174537 16 251 9.7 14.5 0.00 0.00 0.00 54 954.4
20260504174034 16 224 4.8 6.4 0.00 0.00 0.00 55 954.3
20260504173531 17 232 1.6 6.4 0.00 0.00 0.00 54 954.4
20260504173028 17 203 1.6 9.7 0.00 0.00 0.00 57 954.3
20260504172524 16 298 1.6 6.4 0.00 0.00 0.00 55 954.5
20260504172021 16 326 3.2 6.4 0.00 0.00 0.00 56 954.7
20260504171518 16 179 4.8 4.8 0.00 0.00 0.00 59 954.6
20260504171015 15 184 6.4 12.9 0.00 0.00 0.00 58 954.9
20260504170510 15 199 3.2 6.4 0.00 0.00 0.00 58 955.0
20260504160431 16 200 3.2 4.8 0.00 0.00 0.00 57 955.9
20260504150854 15 168 3.2 3.2 0.00 0.00 0.00 56 955.8
20260504150351 15 162 1.6 3.2 0.00 0.00 0.00 55 955.8
20260504141321 12 239 1.6 3.2 0.00 0.00 0.00 57 956.2
20260504140817 12 319 1.6 4.8 0.00 0.00 0.00 57 956.1
20260504140313 12 237 1.6 3.2 0.00 0.00 0.00 58 956.1
20260504130742 11 184 1.6 3.2 0.00 0.00 0.00 61 956.1
20260504130238 10 203 0.0 1.6 0.00 0.00 0.00 60 956.4
20260504120202 5 136 0.0 0.0 0.00 0.00 0.00 85 955.5
20260504110629 2 288 0.0 0.0 0.00 0.00 0.00 86 955.4
20260504110125 2 276 0.0 0.0 0.00 0.00 0.00 86 955.4